Akron, CO

11:54 PM MDT on August 23, 2016 (GMT -0600)
Akron-Washington County

Weather History for KAKO - March, 2012

Change the Weather History Date:

Friday, March 16, 2012

  Actual Average Record
Temperature  
Mean Temperature 57 °F 39 °F  
Max Temperature 76 °F 53 °F 82 °F (2015)
Min Temperature 37 °F 26 °F 2 °F (1943)
Degree Days  
Heating Degree Days 8    
Month to date heating degree days 326  
Cooling Degree Days 0    
Month to date cooling degree days 0  
Growing Degree Days 7 (Base 50)    
Moisture  
Dew Point 21 °F    
Average Humidity 30    
Maximum Humidity 48    
Minimum Humidity 11    
Precipitation  
Precipitation 0.00 in 0.03 in 0.21 in (1946)
Month to date precipitation T 0.38  
Year to date precipitation 1.12  
Sea Level Pressure  
Sea Level Pressure 29.75 in    
Wind  
Wind Speed 7 mph (WSW)    
Max Wind Speed 14 mph    
Max Gust Speed 18 mph    
Visibility 10 miles    
Events      
T = Trace of Precipitation, MM = Missing Value Source: NWS Daily Summary

Daily Weather History Graph

Daily Weather History Graph

Search for Another Location

Airport or City:

Trip Planner

Search our weather history database for the weather conditions in past years. The results will help you decide how hot, cold, wet, or windy it might be!

Date:

Astronomy

Mar. 16, 2012 Rise Set
Actual Time 7:01 AM MDT 7:01 PM MDT
Civil Twilight 6:34 AM MDT 7:28 PM MDT
Nautical Twilight 6:03 AM MDT 8:00 PM MDT
Astronomical Twilight 5:31 AM MDT 8:32 PM MDT
Moon 3:22 AM MDT (3/16) 1:23 PM MDT (3/16)
Length of Visible Light 12h 53m
Length of Day
11h 59m
Waning Crescent, 32% of the Moon is Illuminated
Mar 16
Waning Crescent
Mar 22
New
Mar 30
First Quarter
Apr 6
Full
Apr 13
Last Quarter

Hourly Weather History & Observations

Time (MDT) Temp. Windchill Dew Point Humidity Pressure Visibility Wind Dir Wind Speed Gust Speed Precip Events Conditions
12:53 AM 48.9 °F - 23.0 °F 36% 29.90 in 10.0 mi South 12.7 mph - N/A   Clear
1:53 AM 46.9 °F - 23.0 °F 39% 29.89 in 10.0 mi South 10.4 mph - N/A   Clear
2:53 AM 45.0 °F 40.1 °F 24.1 °F 44% 29.88 in 10.0 mi SSW 9.2 mph - N/A   Clear
3:53 AM 45.0 °F 40.1 °F 24.1 °F 44% 29.86 in 10.0 mi SSW 9.2 mph - N/A   Clear
4:53 AM 39.9 °F 34.5 °F 21.9 °F 49% 29.88 in 10.0 mi WSW 8.1 mph - N/A   Clear
5:53 AM 46.9 °F - 18.0 °F 32% 29.84 in 10.0 mi SW 8.1 mph - N/A   Clear
6:53 AM 46.0 °F 43.1 °F 18.0 °F 33% 29.85 in 10.0 mi South 5.8 mph - N/A   Clear
7:53 AM 46.9 °F - 19.9 °F 34% 29.85 in 10.0 mi Calm Calm - N/A   Clear
8:53 AM 50.0 °F - 23.0 °F 35% 29.85 in 10.0 mi NNW 4.6 mph - N/A   Clear
9:53 AM 57.0 °F - 21.9 °F 26% 29.83 in 10.0 mi West 10.4 mph - N/A   Clear
10:53 AM 61.0 °F - 21.9 °F 22% 29.81 in 10.0 mi SSE 6.9 mph - N/A   Clear
11:53 AM 66.0 °F - 23.0 °F 20% 29.76 in 10.0 mi Calm Calm - N/A   Clear
12:53 PM 70.0 °F - 21.0 °F 16% 29.72 in 10.0 mi Variable 3.5 mph - N/A   Clear
1:53 PM 73.0 °F - 18.0 °F 12% 29.68 in 10.0 mi Calm Calm - N/A   Clear
2:53 PM 75.9 °F - 18.0 °F 11% 29.65 in 10.0 mi SSW 6.9 mph - N/A   Clear
3:53 PM 75.9 °F - 18.0 °F 11% 29.63 in 10.0 mi South 8.1 mph - N/A   Clear
4:53 PM 75.0 °F - 19.0 °F 12% 29.63 in 10.0 mi West 9.2 mph - N/A   Clear
5:53 PM 73.0 °F - 21.0 °F 14% 29.62 in 10.0 mi WNW 5.8 mph - N/A   Clear
6:53 PM 64.0 °F - 24.1 °F 22% 29.65 in 10.0 mi NNW 5.8 mph - N/A   Clear
7:53 PM 57.9 °F - 21.9 °F 25% 29.68 in 10.0 mi North 3.5 mph - N/A   Clear
8:53 PM 59.0 °F - 21.0 °F 23% 29.67 in 10.0 mi North 5.8 mph - N/A   Clear
9:53 PM 62.1 °F - 18.0 °F 18% 29.65 in 10.0 mi NNE 3.5 mph - N/A   Clear
10:53 PM 55.9 °F - 18.0 °F 23% 29.65 in 10.0 mi Calm Calm - N/A   Clear
11:53 PM 59.0 °F - 17.1 °F 20% 29.62 in 10.0 mi Calm Calm - N/A   Clear